Ontario, OR

1:37 AM MST on January 22, 2017 (GMT -0700)
Ontario Municipal

Weather History for KONO - August, 2014

Change the Weather History Date:

Saturday, August 2, 2014

  Actual Average Record
Temperature  
Mean Temperature 80 °F 77 °F  
Max Temperature 96 °F 95 °F 110 °F (1961)
Min Temperature 63 °F 58 °F 45 °F (1975)
Degree Days  
Heating Degree Days 0 0  
Month to date heating degree days 0 0  
Since 1 June heating degree days 28 57  
Since 1 July heating degree days 0 5  
Cooling Degree Days 15 12  
Month to date cooling degree days 28 24  
Year to date cooling degree days 729 547  
Since 1 June cooling degree days 681 511  
Growing Degree Days 30 (Base 50)    
Moisture  
Dew Point 51 °F    
Average Humidity 42    
Maximum Humidity 68    
Minimum Humidity 16    
Precipitation  
Precipitation 0.00 in 0.01 in 0.00 in (2017)
Month to date precipitation 0.00 0.01  
Year to date precipitation 5.01 6.07  
Sea Level Pressure  
Sea Level Pressure 29.93 in    
Wind  
Wind Speed 3 mph (WSW)    
Max Wind Speed 15 mph    
Max Gust Speed 19 mph    
Visibility 10 miles    
Events      
T = Trace of Precipitation, MM = Missing Value Source: NWS Daily Summary

Daily Weather History Graph

Daily Weather History Graph

Search for Another Location

Airport or City:

Trip Planner

Search our weather history database for the weather conditions in past years. The results will help you decide how hot, cold, wet, or windy it might be!

Date:

Astronomy

Aug. 02, 2014 Rise Set
Actual Time 6:37 AM MDT 9:10 PM MDT
Civil Twilight 6:04 AM MDT 9:43 PM MDT
Nautical Twilight 5:23 AM MDT 10:24 PM MDT
Astronomical Twilight 4:36 AM MDT 11:10 PM MDT
Moon 1:18 PM MDT (8/2) No Moon Set
Length of Visible Light 15h 38m
Length of Day
14h 33m
Waxing Crescent, 37% of the Moon is Illuminated
Aug 2
Waxing Crescent
Aug 3
First Quarter
Aug 10
Full
Aug 17
Last Quarter
Aug 25
New

Hourly Weather History & Observations

Time (MDT) Temp. Heat Index Dew Point Humidity Pressure Visibility Wind Dir Wind Speed Gust Speed Precip Events Conditions
12:53 AM 81.0 °F - 46.0 °F 29% 29.92 in 10.0 mi North 4.6 mph - N/A   Clear
1:53 AM 71.1 °F - 51.1 °F 49% 29.94 in 10.0 mi SW 5.8 mph - N/A   Clear
2:53 AM 70.0 °F - 50.0 °F 49% 29.95 in 10.0 mi WSW 6.9 mph - N/A   Clear
3:53 AM 70.0 °F - 48.9 °F 47% 29.96 in 10.0 mi WSW 6.9 mph - N/A   Clear
4:53 AM 69.1 °F - 52.0 °F 54% 29.97 in 10.0 mi South 3.5 mph - N/A   Clear
5:53 AM 66.0 °F - 55.0 °F 68% 29.98 in 10.0 mi SSW 3.5 mph - N/A   Clear
6:53 AM 64.9 °F - 54.0 °F 68% 29.99 in 10.0 mi Calm Calm - N/A   Clear
7:53 AM 64.0 °F - 52.0 °F 65% 30.00 in 10.0 mi Calm Calm - N/A   Clear
8:53 AM 69.1 °F - 52.0 °F 54% 30.01 in 10.0 mi NW 3.5 mph - N/A   Clear
9:53 AM 75.0 °F - 52.0 °F 44% 30.01 in 10.0 mi Calm Calm - N/A   Clear
10:53 AM 80.1 °F - 51.1 °F 36% 30.00 in 10.0 mi Calm Calm - N/A   Clear
11:53 AM 84.9 °F - 50.0 °F 30% 29.99 in 10.0 mi Calm Calm - N/A   Clear
12:53 PM 88.0 °F - 50.0 °F 27% 29.97 in 10.0 mi Calm Calm - N/A   Clear
1:53 PM 90.0 °F - 51.1 °F 26% 29.96 in 10.0 mi East 3.5 mph - N/A   Clear
2:53 PM 91.9 °F 89.5 °F 53.1 °F 27% 29.94 in 10.0 mi Calm Calm - N/A   Clear
3:53 PM 93.0 °F 90.8 °F 54.0 °F 27% 29.90 in 10.0 mi Calm Calm - N/A   Clear
4:53 PM 95.0 °F 92.5 °F 53.1 °F 24% 29.87 in 10.0 mi Calm Calm - N/A   Clear
5:53 PM 95.0 °F - 42.1 °F 16% 29.86 in 10.0 mi NNW 5.8 mph - N/A   Clear
6:53 PM 93.0 °F - 48.9 °F 22% 29.84 in 10.0 mi ENE 3.5 mph - N/A   Clear
7:53 PM 90.0 °F 88.1 °F 55.9 °F 31% 29.83 in 10.0 mi Variable 3.5 mph - N/A   Clear
8:53 PM 82.0 °F 82.1 °F 59.0 °F 45% 29.85 in 10.0 mi WSW 3.5 mph - N/A   Clear
9:53 PM 80.1 °F 80.7 °F 59.0 °F 48% 29.86 in 10.0 mi Calm Calm - N/A   Clear
10:53 PM 87.1 °F - 42.1 °F 21% 29.84 in 10.0 mi North 9.2 mph - N/A   Clear
11:53 PM 75.9 °F - 52.0 °F 43% 29.87 in 10.0 mi SSW 4.6 mph - N/A   Clear